TERRASAR-X

Last updated on Fri Jun 19 2026 20:04:01 GMT+0000 (Coordinated Universal Time)

1 31698U 07026A 26170.49711592 .00000145 00000+0 10104-4 0 9995 2 31698 97.4452 178.1696 0001572 90.3933 269.7482 15.19151206 53579
UTC large
Height (km)
Speed (km/s)
/
Latitude / Longitude
Inclination (degrees)
Orbital Period (minutes)
Azimuth
Elevation
Range (km)
Doppler Factor

Next 0 passes for location: London (51.5072 / 0.1276)

No passes found over London.
TERRASAR-X